Weather in Takushevo

Russia / Republic of Mordovia     54°43′11″N   42°57′29″E
temp.,
°C
wind,
m/s
gust,
m/s
humid.,
%
clouds,
%
prec.,
mm/h
press.,
hPa
HPBL,
m
2 march, tue
tue200:00−2wsw61293100 0.1 1015664
03:00−1wsw71394100 0.5 1011618
06:00+1wsw71393100 0.1 1007770
09:00+1w61298100 0.3 1006600
12:00+1wnw51199100 0.3 1004606
15:00+1wnw4899100 0.6 1004466
18:00−2wnw369274 0.1 1004123
21:00−2wnw4109187 0.1 1005354
3 march, wed
wed300:00−4wnw4994100 0.0 1006253
03:00−6wnw4109263 0.0 1007289
06:00−6nw5119358 0.1 1008547
09:00−7nw6119076 0.1 1010693
12:00−5nw61086100 0.1 1011813
15:00−4nw5983100 0.1 1011903
18:00−6w369164 0.0 1011100
21:00−4w5119579 0.1 1011382
4 march, thu
thu400:00−5w5119575 0.0 1010334
03:00−3w5109186 0.1 1008655
06:00−3wsw61292100 0.1 1006641
09:00−2wsw81594100 1.1 1003916
12:000wsw81497100 0.9 1000934
15:000wsw81398100 1.9 999898
18:00+1wsw81685100 0.0 9981067
21:000wsw71397100 0.4 998847
5 march, fri
fri500:000w61198100 0.6 999687
03:00−4wnw3887100 1.0 1001230
06:00−7nw2392100 0.0 100392
09:00−7nnw2490100 0.0 1005222
12:00−4wnw238198 0.0 1007440
15:00−3w127899 0.0 1008525
18:00−6s0187100 0.0 100821
21:00−6e2291100 0.0 100840
6 march, sat
sat600:00−7ene2496100 0.1 1006151
03:00−7nne3696100 0.9 1006234
06:00−8nnw3596100 0.4 1006145
09:00−9nnw359496 0.5 1008248
12:00−6nw358785 0.0 1008651
15:00−5nw468393 0.2 1009927
18:00−8w2391100 0.1 101038
21:00−11wnw349296 0.1 101174